metlocid,date_time,avg_rh,stddev_rh,min_rh,max_rh,n_rh,n_comments
MISM,1/1/12,48.19795105,12.77215361,24.31,78.45,327,0
MISM,2/1/12,62.45843756,18.02548741,22.33,100,2784,2
MISM,3/1/12,69.05210683,19.06676841,22.36,100,2976,301
MISM,4/1/12,71.42688189,17.60128257,25.44,100,2880,134
MISM,5/1/12,60.61609202,22.848661,10,100,2976,64
MISM,6/1/12,67.72769793,18.30210625,21.8,100,2880,35
MISM,7/1/12,68.86893814,18.34943673,24.67,100,2976,23
MISM,8/1/12,67.48048384,19.25337285,20.33,100,2976,52
MISM,9/1/12,69.46856597,14.33382743,28.85,100,2880,12
MISM,10/1/12,61.30605515,16.9981468,23.96,100,2976,62
MISM,11/1/12,51.64487315,16.35874354,15.4,94.65,2877,0
MISM,12/1/12,63.34375671,19.56365898,18.4,100,2976,2
MISM,1/1/13,67.67762434,19.03598265,20.4,100,2976,42
MISM,2/1/13,66.02030509,14.77794775,28.88,100,2688,43
MISM,3/1/13,77.77126677,15.31862903,30.25,100,2976,294
MISM,4/1/13,72.54703483,14.66979591,34.5,100,2880,50
MISM,5/1/13,72.07164652,18.26020223,27.46,100,2976,142
MISM,6/1/13,65.26059031,19.19731686,20.1,100,2880,125
MISM,7/1/13,73.49534941,18.66283387,26.59,100,2976,146
MISM,8/1/13,62.87850423,18.56298792,15.33,100,2975,6
MISM,9/1/13,64.68446536,18.60691628,24.26,100,2880,80
MISM,10/1/13,68.24514789,21.16630187,22.92,100,2976,221
MISM,11/1/13,50.77998261,21.77569953,12.58,97.99,2880,0
MISM,12/1/13,58.31533267,22.3745727,15.67,100,2976,76
MISM,1/1/14,57.85581313,21.32022189,16.11,100,2976,22
MISM,2/1/14,56.65643226,18.05232399,11.01,100,2688,1
MISM,3/1/14,67.60204639,20.04294563,25.21,100,2976,253
MISM,4/1/14,71.66156248,17.42664121,22.04,100,2880,25
MISM,5/1/14,68.73578962,24.15962492,19.63,100,2976,392
MISM,6/1/14,68.57569096,17.57750563,21.52,100,2880,55
MISM,7/1/14,67.83073584,16.91815651,14.13,100,2976,1
MISM,8/1/14,58.62017138,22.41931965,18.81,100,2976,90
MISM,9/1/14,65.19823266,22.66599068,20.47,100,2880,265
MISM,10/1/14,59.98303761,23.73395979,12.5,100,2976,276
MISM,11/1/14,65.06524998,18.94457068,20.1,100,2880,39
MISM,12/1/14,66.22672381,15.71726732,25.11,100,2976,2
MISM,1/1/15,62.37112234,19.10723082,22.23,100,2976,57
MISM,2/1/15,54.07921878,17.57799926,20.43,100,2688,15
MISM,3/1/15,66.13215724,15.01269395,32.13,100,2976,29
MISM,4/1/15,72.25314589,20.46390452,14.56,100,2880,130
MISM,5/1/15,70.14544022,14.25545863,27.74,100,2976,44
MISM,6/1/15,66.66995144,14.28342413,19.9,100,2880,20
MISM,7/1/15,63.70159725,20.15361565,12.09,100,2974,5
MISM,8/1/15,64.3180981,20.87397992,13.56,100,2976,1
MISM,9/1/15,59.26933679,17.45986275,18.3,100,2880,1
MISM,10/1/15,56.79898848,22.23240086,15.61,100,2976,64
MISM,11/1/15,48.27310766,19.84300216,16.42,100,2880,23
MISM,12/1/15,61.22201553,22.54121829,12.45,100,2967,58
MISM,1/1/16,52.96810821,19.75919304,14.8,100,2976,24
MISM,2/1/16,55.75596986,19.27155868,14.12,100,2784,17
MISM,3/1/16,73.54806116,14.60385851,36.89,100,2976,159
MISM,4/1/16,70.8388924,16.88267719,26.24,100,2880,87
MISM,5/1/16,70.32645834,17.42094911,17.21,100,2976,25
MISM,6/1/16,76.48642364,13.69498463,30.71,100,2880,68
MISM,7/1/16,73.21776546,13.67100979,27.06,100,2976,51
MISM,8/1/16,65.54017472,19.33576507,23.78,100,2976,69
MISM,9/1/16,67.82262505,17.33773873,24.82,100,2880,78
MISM,10/1/16,69.7001748,18.04983003,22.43,100,2976,127
MISM,11/1/16,62.30841319,20.39175532,21.69,100,2880,71
MISM,12/1/16,55.55394757,18.59119817,16.48,100,2974,4
MISM,1/1/17,59.07359215,17.92256346,16.48,99.87,2976,0
MISM,2/1/17,56.82023806,16.6860991,21.31,100,2688,32
MISM,3/1/17,77.13689514,20.31711469,26.59,100,2976,436
MISM,4/1/17,66.67066317,13.65001181,33.56,100,2880,6
MISM,5/1/17,71.91488913,16.78709624,25.33,100,2976,100
MISM,6/1/17,64.2007778,18.85757683,19.52,100,2880,26
MISM,7/1/17,61.58357526,20.47127812,16.09,100,2976,3
MISM,8/1/17,58.62518145,20.53379863,20.06,100,2976,102
MISM,9/1/17,61.85251383,16.33047005,22.44,100,2880,4
MISM,10/1/17,58.70154239,22.20258654,18.23,100,2976,81
MISM,11/1/17,61.16371525,21.26802536,22.63,100,2880,90
MISM,12/1/17,62.44877523,18.22505436,18.63,100,2972,38
MISM,1/1/18,64.37582665,18.57693295,19.78,100,2976,37
MISM,2/1/18,64.13281256,15.52945807,31.9,100,2688,75
MISM,3/1/18,69.99929436,20.56538898,25.36,100,2976,312
MISM,4/1/18,66.2665799,17.99613107,24.62,100,2880,22
MISM,5/1/18,70.0397211,17.27342004,21.51,100,2976,43
MISM,6/1/18,64.92562503,20.88962163,22.1,100,2880,129
MISM,7/1/18,65.5204906,20.14913636,16.29,100,2976,104
MISM,8/1/18,61.00165665,17.28386696,11.55,100,2976,24
MISM,9/1/18,63.87449307,19.25938279,21.71,100,2880,3
MISM,10/1/18,57.88971101,22.75731611,13.9,100,2976,82
MISM,11/1/18,56.20034033,21.19805804,14.08,98.43,2880,0
MISM,12/1/18,45.75196707,19.096987,12.73,94.3,2003,0
MISM,1/1/19,69.58498401,14.33777324,29.43,98.22,1874,0
MISM,2/1/19,59.06806919,17.53581794,20.87,100,2688,20
MISM,3/1/19,69.93996309,19.7544121,16.1,100,2976,259
MISM,4/1/19,66.26977083,18.53949908,22.99,100,2880,74
MISM,5/1/19,65.02043349,20.15285427,20.97,100,2976,45
MISM,6/1/19,65.52369445,22.39952573,20.64,100,2880,207
MISM,7/1/19,69.60290657,22.20571723,23.52,100,2976,185
MISM,8/1/19,63.09003699,19.19187924,21.57,100,2976,36
MISM,9/1/19,58.22955552,18.4374488,17.96,100,2880,3
MISM,10/1/19,59.88392473,17.06648746,21.23,100,2976,3
MISM,11/1/19,52.98998953,22.22022947,14.09,100,2880,32
MISM,12/1/19,63.2812121,18.30106357,22.42,100,2970,2824
MISM,1/1/20,71.94494287,18.25226209,29.06,100,2976,2976
MISM,2/1/20,68.63690014,17.82667332,27.55,100,2784,2784
MISM,3/1/20,75.50098792,13.96197551,39.34,100,2976,2976
MISM,4/1/20,62.77672916,16.87999749,23.21,100,2880,2880
MISM,5/1/20,70.99806111,16.78859427,26.91,100,2976,2976
MISM,6/1/20,63.8030382,20.35040464,21.64,100,2880,2880
MISM,7/1/20,62.85365925,18.10249597,21.35,100,2976,2976
MISM,8/1/20,67.36781588,22.8011972,21.32,100,2976,2976
MISM,9/1/20,67.98693401,20.11874317,14.08,100,2880,2880
MISM,10/1/20,60.23788642,20.4753175,18.57,100,2976,2976
MISM,11/1/20,58.47930902,20.54569857,16.74,100,2880,2880
MISM,12/1/20,49.63789987,17.62299148,15.26,96.68,2976,2976
MISM,1/1/21,53.0988676,17.12452804,17.81,99.83,2976,2976
MISM,2/1/21,65.99792782,18.39423966,25.12,100,2688,2688
MISM,3/1/21,77.61727493,17.12281265,30.09,100,2976,2976
MISM,4/1/21,73.21398266,17.03696932,26.57,100,2880,2880
MISM,5/1/21,68.20110892,19.42601293,26.61,100,2976,2976
MISM,6/1/21,59.31538195,17.08566702,23.83,100,2880,2880
MISM,7/1/21,68.89057796,18.99452515,22.48,100,2976,2976
MISM,8/1/21,70.9552991,15.84502633,25.34,100,2976,2976
MISM,9/1/21,63.66957641,18.67410285,18.61,100,2880,2880
MISM,10/1/21,54.5885383,16.90193074,18.25,100,2976,2976
MISM,11/1/21,53.77390972,17.17655811,21.75,100,2880,2880
MISM,12/1/21,44.12980509,19.72324563,12.44,96.18,2976,2976
MISM,1/1/22,58.07277965,17.54860437,16.6,100,2968,2968
MISM,2/1/22,62.01587428,17.83925871,19.9,100,2688,2688
MISM,3/1/22,65.03386427,19.29790193,24.04,100,2976,2976
MISM,4/1/22,71.59374305,19.24511402,16,100,2880,2880
MISM,5/1/22,63.30636759,19.23161943,23.81,100,2976,2976
MISM,6/1/22,65.32983682,23.25727407,15.22,100,2880,2880
MISM,7/1/22,54.67016136,20.4477497,14.71,100,2976,2976
MISM,8/1/22,62.55272177,20.31452764,16.58,100,2976,2976
MISM,9/1/22,68.54220837,22.01757452,16.04,100,2880,2880
MISM,10/1/22,55.31402892,22.84894809,10.71,100,2976,2976
MISM,11/1/22,67.48859719,16.74706474,21.35,100,2880,2880
MISM,12/1/22,49.74682827,14.70361111,19.67,94.71,1671,1671